Hourly Weather Al Hillah

Today, 4 March, Thursday

Time Temperature Precipitation Wind Pressure Humidity
00:00 +20°C° 0 mm 4 mps 758 mmHg 24%
01:00 +19°C° 0 mm 4 mps 758 mmHg 26%
02:00 +19°C° 0 mm 4 mps 757 mmHg 27%
03:00 +18°C° 0 mm 4 mps 757 mmHg 28%
04:00 +18°C° 0 mm 4 mps 757 mmHg 30%
05:00 +18°C° 0 mm 4 mps 757 mmHg 31%
06:00 +17°C° 0 mm 4 mps 757 mmHg 33%
07:00 +19°C° 0 mm 5 mps 757 mmHg 30%
08:00 +21°C° 0 mm 6 mps 757 mmHg 26%
09:00 +22°C° 0 mm 8 mps 757 mmHg 23%
10:00 +23°C° 0 mm 8 mps 756 mmHg 22%
11:00 +26°C° 0 mm 8 mps 756 mmHg 21%
12:00 +27°C° 0 mm 8 mps 755 mmHg 19%
13:00 +28°C° 0 mm 9 mps 754 mmHg 19%
14:00 +29°C° 0 mm 9 mps 754 mmHg 19%
15:00 +31°C° 0 mm 10 mps 753 mmHg 19%
16:00 +29°C° 0 mm 9 mps 752 mmHg 20%
17:00 +28°C° 0 mm 8 mps 752 mmHg 20%
18:00 +27°C° 0 mm 7 mps 752 mmHg 21%
19:00 +26°C° 0 mm 8 mps 752 mmHg 24%
20:00 +24°C° 0 mm 8 mps 752 mmHg 27%
21:00 +23°C° 0 mm 9 mps 753 mmHg 30%
22:00 +21°C° 0 mm 9 mps 753 mmHg 34%
23:00 +18°C° 0 mm 8 mps 754 mmHg 37%

Tomorrow, 5 March, Friday

Time Temperature Precipitation Wind Pressure Humidity
00:00 +17°C° 0 mm 7 mps 754 mmHg 41%
01:00 +16°C° 0 mm 7 mps 754 mmHg 42%
02:00 +16°C° 0 mm 7 mps 755 mmHg 43%
03:00 +15°C° 0 mm 6 mps 755 mmHg 44%
04:00 +14°C° 0 mm 6 mps 756 mmHg 50%
05:00 +14°C° 0 mm 6 mps 756 mmHg 56%
06:00 +14°C° 0 mm 6 mps 757 mmHg 62%
07:00 +15°C° 0 mm 8 mps 758 mmHg 59%
08:00 +16°C° 0 mm 9 mps 758 mmHg 57%
09:00 +17°C° 0 mm 10 mps 759 mmHg 54%
10:00 +18°C° 0 mm 10 mps 759 mmHg 49%
11:00 +19°C° 0 mm 9 mps 760 mmHg 43%
12:00 +21°C° 0 mm 9 mps 760 mmHg 37%
13:00 +22°C° 0 mm 9 mps 760 mmHg 33%
14:00 +22°C° 0 mm 8 mps 760 mmHg 29%
15:00 +23°C° 0 mm 8 mps 760 mmHg 25%
16:00 +22°C° 0 mm 7 mps 760 mmHg 25%
17:00 +21°C° 0 mm 6 mps 761 mmHg 26%
18:00 +20°C° 0 mm 4 mps 761 mmHg 26%
19:00 +19°C° 0 mm 4 mps 761 mmHg 28%
20:00 +18°C° 0 mm 3 mps 762 mmHg 30%
21:00 +17°C° 0 mm 2 mps 763 mmHg 32%
22:00 +17°C° 0 mm 2 mps 763 mmHg 33%
23:00 +17°C° 0 mm 2 mps 763 mmHg 34%

Day after tomorrow, 6 March, Saturday

Time Temperature Precipitation Wind Pressure Humidity
00:00 +16°C° 0 mm 2 mps 763 mmHg 36%
01:00 +16°C° 0 mm 2 mps 763 mmHg 37%
02:00 +16°C° 0 mm 3 mps 763 mmHg 39%
03:00 +14°C° 0 mm 3 mps 763 mmHg 40%
04:00 +14°C° 0 mm 3 mps 763 mmHg 43%
05:00 +14°C° 0 mm 4 mps 764 mmHg 46%
06:00 +13°C° 0 mm 4 mps 764 mmHg 50%
07:00 +15°C° 0 mm 4 mps 764 mmHg 48%
08:00 +16°C° 0 mm 5 mps 765 mmHg 45%
09:00 +17°C° 0 mm 5 mps 765 mmHg 43%
10:00 +20°C° 0 mm 5 mps 765 mmHg 37%
11:00 +21°C° 0 mm 6 mps 764 mmHg 32%
12:00 +23°C° 0 mm 6 mps 764 mmHg 26%
13:00 +23°C° 0 mm 6 mps 764 mmHg 24%
14:00 +23°C° 0 mm 6 mps 763 mmHg 23%
15:00 +24°C° 0 mm 6 mps 762 mmHg 21%
16:00 +23°C° 0 mm 5 mps 762 mmHg 22%
17:00 +22°C° 0 mm 5 mps 762 mmHg 24%
18:00 +21°C° 0 mm 4 mps 762 mmHg 25%
19:00 +19°C° 0 mm 4 mps 762 mmHg 27%
20:00 +18°C° 0 mm 4 mps 762 mmHg 30%
21:00 +17°C° 0 mm 3 mps 762 mmHg 32%
22:00 +17°C° 0 mm 3 mps 762 mmHg 33%
23:00 +16°C° 0 mm 3 mps 762 mmHg 34%

7 March, Sunday

Time Temperature Precipitation Wind Pressure Humidity
00:00 +16°C° 0 mm 2 mps 762 mmHg 35%
01:00 +15°C° 0 mm 2 mps 761 mmHg 37%
02:00 +15°C° 0 mm 2 mps 761 mmHg 38%
03:00 +14°C° 0 mm 2 mps 760 mmHg 39%
04:00 +14°C° 0 mm 2 mps 760 mmHg 40%
05:00 +14°C° 0 mm 2 mps 761 mmHg 41%
06:00 +13°C° 0 mm 1 mps 761 mmHg 42%
07:00 +15°C° 0 mm 1 mps 761 mmHg 37%
08:00 +18°C° 0 mm 1 mps 761 mmHg 32%
09:00 +20°C° 0 mm 1 mps 761 mmHg 28%
10:00 +22°C° 0 mm 1 mps 761 mmHg 25%
11:00 +23°C° 0 mm 2 mps 760 mmHg 22%
12:00 +25°C° 0 mm 2 mps 760 mmHg 19%
13:00 +25°C° 0 mm 3 mps 759 mmHg 18%
14:00 +26°C° 0 mm 3 mps 758 mmHg 16%
15:00 +27°C° 0 mm 3 mps 758 mmHg 15%
16:00 +25°C° 0 mm 3 mps 757 mmHg 17%
17:00 +24°C° 0 mm 2 mps 757 mmHg 18%
18:00 +23°C° 0 mm 1 mps 757 mmHg 20%
19:00 +22°C° 0 mm 1 mps 757 mmHg 21%
20:00 +21°C° 0 mm 1 mps 757 mmHg 22%
21:00 +20°C° 0 mm 1 mps 757 mmHg 23%
22:00 +19°C° 0 mm 2 mps 757 mmHg 24%
23:00 +19°C° 0 mm 2 mps 757 mmHg 24%

8 March, Monday

Time Temperature Precipitation Wind Pressure Humidity
00:00 +18°C° 0 mm 2 mps 757 mmHg 25%
01:00 +18°C° 0 mm 2 mps 757 mmHg 27%
02:00 +17°C° 0 mm 2 mps 756 mmHg 28%
03:00 +17°C° 0 mm 2 mps 756 mmHg 30%
04:00 +16°C° 0 mm 2 mps 756 mmHg 30%
05:00 +16°C° 0 mm 2 mps 756 mmHg 30%
06:00 +16°C° 0 mm 2 mps 756 mmHg 31%
07:00 +18°C° 0 mm 3 mps 757 mmHg 27%
08:00 +20°C° 0 mm 3 mps 757 mmHg 24%
09:00 +22°C° 0 mm 3 mps 757 mmHg 20%
10:00 +23°C° 0 mm 4 mps 757 mmHg 18%
11:00 +26°C° 0 mm 5 mps 756 mmHg 16%
12:00 +28°C° 0 mm 6 mps 756 mmHg 14%
13:00 +29°C° 0 mm 6 mps 755 mmHg 14%
14:00 +29°C° 0 mm 6 mps 755 mmHg 14%
15:00 +30°C° 0 mm 6 mps 754 mmHg 13%
16:00 +28°C° 0 mm 6 mps 754 mmHg 15%
17:00 +26°C° 0 mm 6 mps 754 mmHg 16%
18:00 +24°C° 0 mm 6 mps 754 mmHg 18%
19:00 +22°C° 0 mm 6 mps 755 mmHg 21%
20:00 +21°C° 0 mm 6 mps 756 mmHg 25%
21:00 +20°C° 0 mm 6 mps 756 mmHg 28%
22:00 +19°C° 0 mm 5 mps 757 mmHg 31%
23:00 +19°C° 0 mm 5 mps 757 mmHg 34%

9 March, Tuesday

Time Temperature Precipitation Wind Pressure Humidity
00:00 +17°C° 0 mm 5 mps 757 mmHg 37%
01:00 +17°C° 0 mm 5 mps 757 mmHg 38%
02:00 +17°C° 0 mm 4 mps 757 mmHg 40%
03:00 +17°C° 0 mm 4 mps 757 mmHg 41%
04:00 +16°C° 0 mm 3 mps 758 mmHg 44%
05:00 +16°C° 0 mm 3 mps 758 mmHg 46%
06:00 +14°C° 0 mm 3 mps 759 mmHg 48%
07:00 +17°C° 0 mm 3 mps 759 mmHg 45%
08:00 +18°C° 0 mm 3 mps 760 mmHg 42%
09:00 +20°C° 0 mm 3 mps 760 mmHg 38%
10:00 +21°C° 0 mm 4 mps 760 mmHg 34%
11:00 +23°C° 0 mm 4 mps 760 mmHg 30%
12:00 +25°C° 0 mm 5 mps 760 mmHg 26%
13:00 +25°C° 0 mm 5 mps 759 mmHg 25%
14:00 +26°C° 0 mm 5 mps 759 mmHg 24%
15:00 +26°C° 0 mm 6 mps 759 mmHg 23%
16:00 +25°C° 0 mm 5 mps 759 mmHg 25%
17:00 +23°C° 0 mm 4 mps 759 mmHg 27%
18:00 +22°C° 0 mm 3 mps 759 mmHg 29%
19:00 +21°C° 0 mm 3 mps 759 mmHg 31%
20:00 +20°C° 0 mm 2 mps 759 mmHg 33%
21:00 +19°C° 0 mm 2 mps 759 mmHg 35%
22:00 +19°C° 0 mm 2 mps 759 mmHg 34%
23:00 +19°C° 0 mm 2 mps 759 mmHg 34%
Show more